Flag for Norway Weather past 2 weeks in Orkanger/Fannrem, Norway

Now
50 °F

Cool.


Feels Like: 50 °F
Forecast: 43 / 65 °F
Wind: 2 mph from South

Location: Vinjeora Ii

Current Time: Sep 18, 2014 at 4:44:06 AM

Latest Report: Sep 18, 2014 at 4:00 AM


Visibility: N/A

Pressure: 30.20 "Hg

Humidity: 79%

Dew point: 44 °F

Location of Orkanger/FannremLocation

Historic Weather in Orkanger/Fannrem — Graph

°F

Orkanger/Fannrem temperature yesterday

Maximum temperature yesterday: 63 °F (at 1:00 PM)
Minimum temperature yesterday: 45 °F (at 10:00 PM)
Average temperature yesterday: 52 °F

Past Weeks' High & Low Weather Summary

 TemperatureHumidityPressure
High72 °F (Sep 7, 1:00 PM)93% (Sep 10, 7:00 AM)30.51 "Hg (Sep 10, 7:00 AM)
Low44 °F (Sep 10, 5:00 AM)47% (Sep 7, 1:00 PM)29.82 "Hg (Sep 8, 4:00 PM)
Average55 °F79%30.19 "Hg
* Reported Sep 3 3:00 AM — Sep 18 3:00 AM, Orkanger/Fannrem, Weather by CustomWeather, © 2014

Note: Actual official high and low records may vary slightly from our data, if they occured in-between our weather recording intervals... More about our weather records

Advertising

Orkanger/Fannrem weather history for previous 24 hours

 ConditionsComfort  
Time TempWeatherWind HumidityBarometerVisibility
3:00 AM
Sep 18
49 °FCool.2 mph82%30.20 "HgN/A
2:00 AM49 °FCool.2 mph88%30.21 "HgN/A
1:00 AM48 °FCool.2 mph92%30.21 "HgN/A
12:00 AM46 °FCool.1 mph92%30.22 "HgN/A
11:00 PM
Sep 17
46 °FCool.1 mph92%30.22 "HgN/A
10:00 PM45 °FQuite cool.No wind91%30.22 "HgN/A
9:00 PM45 °FCool.1 mph91%30.22 "HgN/A
8:00 PM47 °FCool.1 mph90%30.21 "HgN/A
7:00 PM49 °FCool.No wind89%30.20 "HgN/A
6:00 PM51 °FCool.1 mph88%30.19 "HgN/A
5:00 PM52 °FCool.1 mph87%30.19 "HgN/A
4:00 PM53 °FCool.1 mph85%30.20 "HgN/A
3:00 PM55 °FCool.1 mph80%30.21 "HgN/A
2:00 PM60 °FCool.1 mph66%30.22 "HgN/A
1:00 PM63 °FMild.2 mph54%30.24 "HgN/A
12:00 PM60 °FCool.2 mph61%30.26 "HgN/A
11:00 AM58 °FCool.3 mph63%30.27 "HgN/A
10:00 AM55 °FCool.3 mph66%30.28 "HgN/A
9:00 AM51 °FCool.2 mph77%30.29 "HgN/A
8:00 AM51 °FCool.2 mph78%30.29 "HgN/A
7:00 AM52 °FCool.3 mph77%30.29 "HgN/A
6:00 AM52 °FCool.3 mph77%30.28 "HgN/A
5:00 AM52 °FCool.2 mph77%30.28 "HgN/A
4:00 AM53 °FCool.2 mph76%30.28 "HgN/A
Weather by CustomWeather, © 2014

See weather overviewHow to use our weather pages